Regional Weather Roundup
Issued by NWS

Home | Current Version | Previous Version | Text Only | Print | Product List | Glossary On
Versions: 1 2 3 4 5 6 7 8 9 10 11 12 13 14 15 16 17 18 19 20 21 22 23 24 25 26 27 28 29 30 31 32 33 34 35 36 37 38 39 40 41 42 43 44 45 46 47 48 49 50
000
ASUS43 KDTX 051710
RWRMI
MICHIGAN HOURLY REGIONAL WEATHER ROUNDUP
NATIONAL WEATHER SERVICE DETROIT/PONTIAC MI
100 PM EDT THU MAY 05 2016

NOTE: "FAIR" INDICATES FEW OR NO CLOUDS BELOW 12,000 FEET WITH NO
SIGNIFICANT WEATHER AND/OR OBSTRUCTION TO VISIBILITY.

MIZ047>049-052>055-059>063-066>070-074>076-081>083-051800-
SOUTHEAST LOWER MICHIGAN

CITY           SKY/WX    TMP DP  RH WIND       PRES   REMARKS
ADRIAN         MOSUNNY   62  44  51 NE14G24   29.87S
ALMA           SUNNY     59  47  64 N16       29.94S
ANN ARBOR      MOSUNNY   64  42  44 NE12G21   29.87S
BAD AXE        SUNNY     55  46  71 N12       29.92S
CARO           MOSUNNY   55  48  77 N14       29.92S
DETROIT CITY   MOSUNNY   64  43  46 NE15G22   29.86S
DETROIT        MOSUNNY   64  41  42 NE15G22   29.86S
FLINT          SUNNY     61  47  59 N12       29.91S
GROSSE ILE     PTSUNNY   63  45  51 NE13G20   29.84S
HILLSDALE      MOSUNNY   60  39  45 N13G23    29.89S
HOWELL         SUNNY     57  47  69 N8        29.90S

CITY           SKY/WX    TMP DP  RH WIND       PRES   REMARKS
JACKSON        MOSUNNY   59  46  62 N14G23    29.90R
LAMBERTVILLE   MOSUNNY   64  42  44 NE13G18   29.86S
LANSING        MOSUNNY   60  48  64 N9G18     29.93S
LAPEER         FAIR      60  44  54 N10       29.89S
MASON          SUNNY     59  49  68 N9G17     29.91S
MONROE         MOSUNNY   63  44  49 NE10G22   29.84S
MT. CLEMENS    PTSUNNY   61  44  52 N17       29.85S
PONTIAC        MOSUNNY   62  43  49 NE12G23   29.87S
PORT HOPE        N/A     47  43  86 N8G17     29.93S
PORT HURON     SUNNY     59  43  55 N8G17     29.87S
TRI CITIES     MOSUNNY   60  48  64 N10       29.94F
MIDLAND        FAIR      62  46  56 N10G16    29.92F
TROY           MOSUNNY   64  42  44 N14G21    29.88S
SAGINAW HB     MOSUNNY   55  48  76 N9        29.93F
$$
MIZ043>046-050>051-056>058-064>065-071>073-077>080-051800-
SOUTHWEST LOWER MICHIGAN

CITY           SKY/WX    TMP DP  RH WIND       PRES   REMARKS
BATTLE CREEK   SUNNY     62  45  53 N13G20    29.92S
BENTON HARBOR  MOSUNNY   48  41  76 NW8       29.98S
BIG RAPIDS     SUNNY     60  43  54 N9        29.95F
COLDWATER      SUNNY     60  47  60 N10G17    29.91R
FREMONT        FAIR      60  44  56 N6        29.96F
HOLLAND        SUNNY    N/A N/A N/A W12       29.97S
GRAND RAPIDS   MOSUNNY   63  47  55 NW8       29.95S
IONIA          FAIR      61  45  56 NW6       29.92S
KALAMAZOO      SUNNY     61  47  59 N10       29.94S
LUDINGTON      SUNNY     55  44  65 N9        29.99F
MARSHALL       SUNNY     61  47  59 NE3       29.91S
MOUNT PLEASANT   N/A     60  47  63 N7        29.93
MUSKEGON       SUNNY     61  45  55 W8        29.96F
SOUTH HAVEN    SUNNY     50  43  78 N8        29.98R
$$
MIZ016>042-051800-
NORTHERN LOWER MICHIGAN

CITY           SKY/WX    TMP DP  RH WIND       PRES   REMARKS
ALPENA         SUNNY     60  44  55 N8        29.95F
BEAVER ISLAND  SUNNY     52  39  61 NW6       30.00F
BELLAIRE       SUNNY     57  43  60 SW7       29.98F
CADILLAC       SUNNY     58  46  64 NW3       29.96S
CHARLEVOIX     SUNNY     46  40  80 NW7       30.04R
FRANKFORT      SUNNY     49  41  73 N10       30.01S
GAYLORD        MOSUNNY   59  46  62 VRB5      29.96F
GRAYLING       SUNNY     60  45  56 W5        29.96S
HARBOR SPRINGS SUNNY     44  39  83 SW9       29.99S
HOUGHTON LAKE  SUNNY     57  45  64 N6        29.96F
MANISTEE       SUNNY     48  37  66 NW12G18   30.01R
OSCODA         SUNNY     57  42  57 NE14      29.94S
PELLSTON       SUNNY     60  44  55 W8        29.98S
ROGERS CITY    SUNNY     50  43  75 N10       29.98S
TRAVERSE CITY  MOSUNNY   52  42  69 NE7       29.99F
$$
MIZ007>008-015-051800-
EASTERN UPPER MICHIGAN

CITY           SKY/WX    TMP DP  RH WIND       PRES   REMARKS
KINROSS          N/A     54  41  62 N12       29.98R
MACKINAC ISLAN SUNNY     50  42  72 CALM      29.98S
NEWBERRY       SUNNY     55  38  52 NE5       29.98F
S. S. MARIE    SUNNY     53  39  59 W10       29.98R
MUNISING         N/A     44  37  76 NE8       30.02F
$$
MIZ004>006-011>014-085-051800-
CENTRAL UPPER MICHIGAN

CITY           SKY/WX    TMP DP  RH WIND       PRES   REMARKS
MANISTIQUE     SUNNY     57  36  45 S5        29.99F
ESCANABA       SUNNY     54  37  54 S8        30.01F
MENOMINEE      SUNNY     52  36  54 MISG        N/A
SAWYER-GWINN   SUNNY     54  36  50 E6        30.01F
$$
MIZ001>003-009>011-084-051800-
WESTERN UPPER MICHIGAN

CITY           SKY/WX    TMP DP  RH WIND       PRES   REMARKS
IRON MOUNTAIN  SUNNY     59  23  25 VRB3      29.98F
HOUGHTON       SUNNY     60  29  30 SW9       29.96F
COPPER HARBOR    N/A     46  36  68 CALM      29.97F
IRONWOOD       SUNNY     61  27  27 S8G18     29.95F
$$

ABBREVIATIONS USED IN REMARKS
   TC - TEMPERATURE IN CELSIUS
  WCI - WIND CHILL INDEX
   HX - HEAT INDEX
  VSB - VISIBILITY





USA.gov is the U.S. government's official web portal to all federal, state and local government web resources and services.